Weather History for Watsonville, CA

Change the Weather History Date:

Tuesday, July 2, 2013

  Actual Average Record
Temperature  
Mean Temperature 68 °F 63 °F  
Max Temperature 80 °F 74 °F 86 °F (2007)
Min Temperature 56 °F 53 °F 48 °F (2003)
Degree Days  
Heating Degree Days 0    
Month to date heating degree days 0  
Since 1 June heating degree days 102  
Since 1 July heating degree days 0  
Cooling Degree Days 3    
Month to date cooling degree days 5  
Year to date cooling degree days 35  
Since 1 June cooling degree days 29  
Growing Degree Days 18 (Base 50)    
Moisture  
Dew Point 55 °F    
Average Humidity 71    
Maximum Humidity 100    
Minimum Humidity 42    
Precipitation  
Precipitation 0.00 in - 0.50 in (1980)
Month to date precipitation 0.00  
Year to date precipitation 2.39  
Since 1 July precipitation 0.00  
Sea Level Pressure  
Sea Level Pressure 29.93 in    
Wind  
Wind Speed 5 mph (SSW)    
Max Wind Speed 15 mph    
Max Gust Speed 21 mph    
Visibility 5 miles    
Events      
T = Trace of Precipitation, MM = Missing Value Source: NWS Daily Summary

Daily Weather History Graph

Daily Weather History Graph

Search for Another Location

Airport:

Trip Planner

Search our weather history database for the weather conditions in past years. The results will help you decide how hot, cold, wet, or windy it might be!

Date:

Astronomy

Jul. 02, 2013 Rise Set
Actual Time 5:52 AM PDT 8:30 PM PDT
Civil Twilight 5:21 AM PDT 9:01 PM PDT
Nautical Twilight 4:43 AM PDT 9:39 PM PDT
Astronomical Twilight 4:00 AM PDT 10:21 PM PDT
Moon 1:53 AM PDT (7/2) 3:52 PM PDT (7/2)
Length of Visible Light 15h 39m
Length of Day
14h 38m
Waning Crescent, 25% of the Moon is Illuminated
Jul 2
Waning Crescent
Jul 8
New
Jul 15
First Quarter
Jul 22
Full
Jul 29
Last Quarter

Hourly Weather History & Observations

Time (PDT) Temp. Heat Index Dew Point Humidity Pressure Visibility Wind Dir Wind Speed Gust Speed Precip Events Conditions
12:31 AM 55.4 °F - 55.4 °F 100% 29.90 in 2.0 mi South 4.6 mph - N/A   Overcast
12:43 AM 55.4 °F - 55.4 °F 100% 29.90 in 1.2 mi South 3.5 mph - N/A   Overcast
12:51 AM 55.4 °F - 55.4 °F 100% 29.90 in 2.0 mi Calm Calm - N/A   Overcast
12:52 AM 55.9 °F - 55.0 °F 97% 29.90 in 2.5 mi Calm Calm - N/A   Overcast
1:00 AM 55.4 °F - 55.4 °F 100% 29.90 in 3.0 mi SE 3.5 mph - N/A   Overcast
1:08 AM 55.4 °F - 55.4 °F 100% 29.90 in 1.8 mi SSE 5.8 mph - N/A   Overcast
1:15 AM 55.4 °F - 55.4 °F 100% 29.90 in 0.8 mi SSE 4.6 mph - N/A   Overcast
1:28 AM 55.4 °F - 53.6 °F 94% 29.90 in 1.0 mi SSE 5.8 mph - N/A   Mist
1:44 AM 55.4 °F - 53.6 °F 94% 29.90 in 1.5 mi Calm Calm - N/A   Overcast
1:53 AM 55.9 °F - 54.0 °F 93% 29.89 in 2.5 mi South 4.6 mph - N/A   Overcast
2:06 AM 55.4 °F - 53.6 °F 94% 29.89 in 1.2 mi Calm Calm - N/A   Overcast
2:14 AM 55.4 °F - 53.6 °F 94% 29.89 in 0.8 mi Calm Calm - N/A   Mist
2:19 AM 55.4 °F - 53.6 °F 94% 29.89 in 1.5 mi Calm Calm - N/A   Overcast
2:23 AM 55.4 °F - 53.6 °F 94% 29.89 in 3.0 mi Calm Calm - N/A   Overcast
2:53 AM 55.9 °F - 54.0 °F 93% 29.88 in 6.0 mi Calm Calm - N/A   Overcast
3:25 AM 55.4 °F - 55.4 °F 100% 29.88 in 1.8 mi South 4.6 mph - N/A   Overcast
3:48 AM 55.4 °F - 55.4 °F 100% 29.89 in 1.0 mi Calm Calm - N/A   Mist
3:53 AM 55.9 °F - 55.0 °F 97% 29.88 in 1.8 mi Calm Calm - N/A   Overcast
3:58 AM 55.4 °F - 53.6 °F 94% 29.88 in 3.0 mi Calm Calm - N/A   Overcast
4:38 AM 55.4 °F - 53.6 °F 94% 29.89 in 1.8 mi WSW 3.5 mph - N/A   Overcast
4:53 AM 55.9 °F - 54.0 °F 93% 29.89 in 2.5 mi Calm Calm - N/A   Overcast
5:11 AM 55.4 °F - 53.6 °F 94% 29.89 in 3.0 mi Calm Calm - N/A   Overcast
5:53 AM 55.9 °F - 54.0 °F 93% 29.90 in 7.0 mi Calm Calm - N/A   Overcast
7:04 AM 55.4 °F - 55.4 °F 100% 29.91 in 0.8 mi Calm Calm - N/A   Overcast
7:08 AM 57.2 °F - 55.4 °F 94% 29.91 in 1.5 mi Calm Calm - N/A   Overcast
7:15 AM 57.2 °F - 55.4 °F 94% 29.91 in 9.0 mi Calm Calm - N/A   Overcast
7:53 AM 57.9 °F - 55.0 °F 90% 29.94 in 10.0 mi Calm Calm - N/A   Overcast
8:18 AM 60.8 °F - 55.4 °F 82% 29.94 in 10.0 mi Variable 3.5 mph - N/A   Mostly Cloudy
8:32 AM 62.6 °F - 55.4 °F 77% 29.94 in 10.0 mi Calm Calm - N/A   Scattered Clouds
8:53 AM 63.0 °F - 55.0 °F 75% 29.94 in 10.0 mi Calm Calm - N/A   Clear
9:53 AM 69.1 °F - 55.9 °F 63% 29.94 in 10.0 mi Calm Calm - N/A   Clear
10:53 AM 71.1 °F - 55.9 °F 59% 29.94 in 10.0 mi South 6.9 mph - N/A   Clear
11:53 AM 75.0 °F - 55.9 °F 51% 29.94 in 10.0 mi SSW 6.9 mph - N/A   Clear
12:53 PM 80.1 °F 80.2 °F 55.9 °F 43% 29.94 in 10.0 mi SW 11.5 mph - N/A   Clear
1:53 PM 75.9 °F - 55.9 °F 50% 29.95 in 10.0 mi SW 13.8 mph - N/A   Clear
2:53 PM 73.9 °F - 55.9 °F 53% 29.96 in 10.0 mi SW 10.4 mph 20.7 mph N/A   Clear
3:53 PM 75.0 °F - 55.9 °F 51% 29.96 in 10.0 mi WSW 12.7 mph 18.4 mph N/A   Clear
4:53 PM 70.0 °F - 55.9 °F 61% 29.96 in 10.0 mi SSW 12.7 mph - N/A   Clear
5:53 PM 71.1 °F - 55.9 °F 59% 29.95 in 10.0 mi WSW 6.9 mph - N/A   Clear
6:53 PM 68.0 °F - 55.9 °F 65% 29.96 in 10.0 mi South 10.4 mph - N/A   Clear
7:53 PM 64.0 °F - 55.9 °F 75% 29.95 in 10.0 mi South 5.8 mph - N/A   Clear
8:53 PM 59.0 °F - 55.9 °F 90% 29.96 in 10.0 mi SSW 6.9 mph - N/A   Clear
9:02 PM 57.2 °F - 55.4 °F 94% 29.96 in 9.0 mi SSW 5.8 mph - N/A   Scattered Clouds
9:14 PM 57.2 °F - 55.4 °F 94% 29.96 in 7.0 mi SSW 4.6 mph - N/A   Mostly Cloudy
9:50 PM 57.2 °F - 55.4 °F 94% 29.97 in 2.0 mi South 4.6 mph - N/A   Overcast
9:53 PM 57.9 °F - 55.9 °F 93% 29.98 in 2.0 mi South 4.6 mph - N/A   Overcast
10:04 PM 57.2 °F - 55.4 °F 94% 29.97 in 1.2 mi South 3.5 mph - N/A   Overcast
10:25 PM 57.2 °F - 55.4 °F 94% 29.98 in 0.8 mi Calm Calm - N/A   Mist
10:32 PM 57.2 °F - 55.4 °F 94% 29.98 in 1.2 mi Calm Calm - N/A   Overcast
10:39 PM 57.2 °F - 55.4 °F 94% 29.98 in 2.0 mi Calm Calm - N/A   Overcast
10:53 PM 57.0 °F - 55.9 °F 96% 29.98 in 1.8 mi Calm Calm - N/A   Overcast
11:22 PM 57.2 °F - 55.4 °F 94% 29.97 in 1.2 mi Calm Calm - N/A   Overcast
11:31 PM 57.2 °F - 55.4 °F 94% 29.97 in 2.0 mi Calm Calm - N/A   Overcast
11:41 PM 57.2 °F - 55.4 °F 94% 29.97 in 4.0 mi Calm Calm - N/A   Overcast
11:53 PM 57.0 °F - 55.9 °F 96% 29.96 in 4.0 mi Calm Calm - N/A   Overcast